EW0910 Weather Reports


time (UTC)temp
F
wind
direction
speed
knots
gust
knots
rain 1hr
in
rain 24hr
in
rain mn
in
humidity
%
barometer
mb
20260510174526 70 57 0.0 4.3 0.00 0.00 0.00 46 1019.5
20260510173022 69 48 0.0 6.1 0.00 0.00 0.00 45 1019.4
20260510171526 69 91 0.0 6.1 0.00 0.00 0.00 47 1019.2
20260510170018 68 76 0.9 7.8 0.00 0.00 0.00 45 1019.0
20260510164516 68 300 0.9 6.1 0.00 0.00 0.00 47 1018.5
20260510163016 68 26 1.7 7.0 0.00 0.00 0.00 46 1018.6
20260510161515 68 127 1.7 7.8 0.00 0.00 0.00 46 1018.8
20260510160016 68 234 0.9 7.0 0.00 0.00 0.00 47 1018.7
20260510154510 66 238 1.7 11.3 0.00 0.00 0.00 50 1018.5
20260510153006 63 19 1.7 12.2 0.00 0.00 0.00 54 1018.3
20260510151508 62 169 0.0 6.1 0.00 0.00 0.00 57 1018.0
20260510150003 62 238 0.9 10.4 0.00 0.00 0.00 58 1017.9
20260510144507 62 110 1.7 6.1 0.00 0.00 0.00 58 1017.6
20260510143001 61 238 1.7 9.6 0.00 0.00 0.00 60 1017.7
20260510141559 61 102 0.0 5.2 0.00 0.00 0.00 65 1017.8
20260510140058 60 148 0.0 4.3 0.00 0.00 0.00 67 1017.8
20260510134557 60 301 0.0 5.2 0.00 0.00 0.00 69 1017.9
20260510133055 60 136 0.0 4.3 0.00 0.00 0.00 70 1017.7
20260510131551 60 63 0.0 4.3 0.00 0.00 0.00 71 1017.0
20260510130049 61 182 0.0 4.3 0.00 0.00 0.00 71 1016.6
20260510124547 61 112 0.9 4.3 0.00 0.00 0.00 71 1016.1
20260510123045 61 104 0.9 5.2 0.00 0.00 0.00 71 1015.9
20260510121543 61 47 0.0 4.3 0.00 0.00 0.00 71 1015.7
20260510120039 60 88 0.9 7.8 0.00 0.00 0.00 72 1015.1
20260510114537 60 120 0.0 6.1 0.00 0.00 0.00 73 1014.5
20260510113040 60 65 0.0 5.2 0.00 0.00 0.00 74 1014.3
20260510111534 60 57 0.9 6.1 0.00 0.00 0.00 74 1013.9
20260510110048 60 18 0.9 5.2 0.00 0.00 0.00 74 1014.1
20260510104532 60 42 0.0 4.3 0.00 0.00 0.00 74 1013.9
20260510103031 61 49 0.0 4.3 0.00 0.00 0.00 73 1013.9
20260510101529 61 10 0.0 2.6 0.00 0.00 0.00 73 1013.6
20260510100034 61 70 0.0 4.3 0.00 0.00 0.00 74 1013.4
20260510094535 59 111 0.0 3.5 0.00 0.00 0.00 77 1013.2
20260510093026 58 126 0.0 1.7 0.00 0.00 0.00 79 1013.0
20260510091526 58 270 0.0 0.0 0.00 0.00 0.00 80 1012.8
20260510090019 59 270 0.0 0.0 0.00 0.01 0.00 78 1012.6
20260510084517 59 270 0.0 0.0 0.00 0.01 0.00 78 1012.1
20260510083018 59 270 0.0 0.9 0.00 0.01 0.00 78 1012.1
20260510081523 59 270 0.0 0.0 0.00 0.01 0.00 78 1012.0
20260510080032 60 270 0.0 0.0 0.00 0.01 0.00 78 1012.1
20260510074512 60 270 0.0 0.0 0.00 0.01 0.00 77 1012.3
20260510073012 60 270 0.0 0.0 0.00 0.01 0.00 76 1012.1
20260510071509 61 270 0.0 0.0 0.00 0.01 0.00 75 1012.3
20260510070005 62 270 0.0 0.0 0.00 0.01 0.00 73 1012.2
20260510064501 63 270 0.0 0.0 0.00 0.01 0.00 71 1012.2
20260510063001 64 270 0.0 0.9 0.00 0.01 0.00 69 1012.0
20260510061558 63 288 0.0 0.9 0.00 0.01 0.00 72 1011.7
20260510060053 64 292 0.0 0.0 0.00 0.01 0.00 69 1011.2
20260510054553 65 292 0.0 0.9 0.00 0.01 0.00 67 1010.9
20260510053054 65 115 0.0 0.9 0.00 0.01 0.00 66 1010.4
20260510051602 66 268 0.0 0.0 0.00 0.01 0.00 68 1011.1
20260510050055 65 268 0.0 0.9 0.00 0.01 0.01 68 1011.5
20260510044546 66 268 0.0 2.6 0.00 0.01 0.01 69 1012.0
20260510043047 65 268 0.0 2.6 0.00 0.01 0.01 71 1011.9
20260510041544 65 238 0.0 0.0 0.00 0.01 0.01 72 1011.9
20260510040042 65 238 0.0 0.0 0.00 0.01 0.01 69 1011.8
20260510034540 65 238 0.0 0.0 0.00 0.01 0.01 71 1011.4
20260510033052 65 238 0.0 0.0 0.00 0.01 0.01 71 1011.4
20260510031539 65 238 0.0 0.0 0.00 0.01 0.01 70 1011.1
20260510030034 64 238 0.0 0.0 0.00 0.01 0.01 72 1010.7
20260510024532 64 238 0.0 0.0 0.00 0.01 0.01 70 1010.6
20260510023032 64 238 0.0 0.0 0.00 0.01 0.01 71 1010.3
20260510021611 65 238 0.0 0.0 0.00 0.01 0.01 69 1010.1
20260510020032 65 238 0.0 0.0 0.00 0.01 0.01 68 1009.7
20260510014545 66 238 0.0 0.0 0.00 0.01 0.01 63 1009.3
20260510013032 68 238 0.0 0.0 0.00 0.01 0.01 60 1009.0
20260510011530 71 238 0.0 0.0 0.00 0.01 0.01 57 1008.7
20260510010037 75 238 0.0 0.0 0.00 0.01 0.01 48 1008.5
20260510004528 80 238 0.0 0.0 0.00 0.01 0.01 44 1008.4
20260510003028 82 238 0.0 0.0 0.00 0.01 0.01 44 1008.3
20260510001528 83 238 0.0 0.9 0.00 0.01 0.01 44 1008.2
20260510000028 84 238 0.0 3.5 0.00 0.01 0.01 42 1008.3
20260509234527 85 238 0.0 4.3 0.00 0.01 0.01 41 1008.2
20260509233032 86 238 0.0 0.9 0.00 0.01 0.01 36 1008.3
20260509231526 86 238 0.0 3.5 0.00 0.01 0.01 37 1008.2
20260509230035 86 238 0.0 2.6 0.00 0.01 0.01 39 1008.3
20260509224525 87 242 0.0 2.6 0.00 0.01 0.01 37 1008.3
20260509223023 87 242 0.0 4.3 0.00 0.01 0.01 38 1008.3
20260509221523 87 217 0.0 0.9 0.00 0.01 0.01 37 1008.3
20260509220021 88 215 0.0 2.6 0.00 0.01 0.01 38 1008.4
20260509214520 87 221 0.0 2.6 0.00 0.01 0.01 33 1008.5
20260509213021 87 221 0.0 3.5 0.00 0.01 0.01 35 1008.5
20260509211518 86 221 0.0 2.6 0.00 0.01 0.01 37 1008.6
20260509210015 86 278 0.0 5.2 0.00 0.01 0.01 38 1008.8
20260509204514 87 262 0.0 3.5 0.00 0.01 0.01 35 1009.1
20260509203022 86 220 0.0 1.7 0.00 0.01 0.01 37 1009.2
20260509201515 87 244 0.0 2.6 0.00 0.01 0.01 38 1009.3
20260509200009 86 223 0.0 4.3 0.00 0.01 0.01 36 1009.5
20260509194514 86 278 0.0 4.3 0.00 0.01 0.01 39 1009.7
20260509193018 86 275 0.9 5.2 0.00 0.01 0.01 39 1009.7
20260509191506 85 234 0.0 4.3 0.00 0.01 0.01 40 1009.8
20260509190006 85 222 0.0 4.3 0.00 0.01 0.01 42 1009.8
20260509184503 84 240 0.9 4.3 0.00 0.01 0.01 42 1009.8
20260509183002 84 219 0.0 5.2 0.00 0.01 0.01 41 1010.0
20260509181606 84 223 0.9 4.3 0.00 0.01 0.01 46 1010.2
20260509180116 83 279 0.9 4.3 0.00 0.01 0.01 43 1010.3